Location: Artigue
(42.9305°N, 0.2052°E)
Time: 23:42:21
(UTC+00:00)

Daily predictions for brighter satellites

Satellite Brightness Start Highest point End
(mag) Time Altitude Azimuth Time Altitude Azimuth Time Altitude Azimuth
Cosmos 2369 4.4 16:48:06 10° N 16:53:14 33° NE 16:58:20 10° ESE
Cosmos 1842 Rocket 3.8 16:50:42 10° S 16:55:09 79° W 16:59:40 10° N
USA 234 3.5 16:49:26 10° ESE 16:55:45 54° NNE 17:02:03 10° NW
CZ-4C R/B 3.6 16:50:55 10° NNW 16:57:06 32° NE 17:04:12 10° E
Cosmos 1092 Rocket 4.3 16:52:47 10° N 16:58:55 48° ENE 17:04:59 10° SSE
Cosmos 2084 3.5 16:54:49 10° NNW 16:59:08 68° NE 17:03:37 10° SE
Cosmos 1812 4.4 16:57:04 10° ESE 16:59:20 15° E 17:01:36 10° NE
NOSS 3-1 (A) 4.1 16:52:06 10° NNW 16:59:42 74° NE 17:08:32 10° SE
NOSS 3-1 (C) 4.5 16:52:10 10° NW 16:59:50 77° WSW 17:08:41 10° SSE
SL-16 R/B 4.0 17:00:33 10° NNE 17:01:53 11° NE 17:03:12 10° NE
ISS -2.4 16:59:05 10° NW 17:01:58 25° NNE 17:04:51 10° ENE
SMAP 3.2 17:00:04 10° SSE 17:04:34 53° ENE 17:09:07 10° N
Meteor 1-25 Rocket 4.3 16:59:04 10° N 17:04:34 58° ENE 17:10:05 10° SSE
Cosmos 2082 Rocket 2.9 16:59:36 10° SSE 17:04:40 34° ESE 17:09:43 10° NE
Meteor PRIRODA 3.7 17:01:38 10° S 17:05:16 83° WSW 17:08:55 10° NNW
Cosmos 1939 Rocket 3.0 17:01:46 10° SSE 17:05:48 58° ENE 17:09:49 10° N
CORIOLIS 4.3 17:02:19 10° SE 17:07:33 53° ENE 17:12:49 10° N
NOAA 12 4.2 17:05:25 10° SSE 17:10:45 87° WSW 17:16:06 10° NNW
CZ-4B DEB 4.4 17:08:36 10° SE 17:13:56 52° ENE 17:19:15 10° N
Cosmos 1602 3.8 17:14:14 10° N 17:18:02 55° E 17:21:50 10° SSE
AQUARIUS 4.2 17:14:04 10° SSE 17:18:29 62° ENE 17:22:56 10° N
Cosmos 540 Rocket 3.4 17:14:34 10° S 17:19:38 68° ESE 17:24:43 10° NNE
Cosmos 1627 Rocket 4.5 17:14:18 10° N 17:20:25 59° E 17:26:25 10° SSE
Cosmos 2034 Rocket 4.3 17:14:50 10° SSW 17:20:58 70° W 17:27:07 10° N
ARGOS 4.0 17:19:42 10° ESE 17:24:15 28° ENE 17:28:48 10° N
Cosmos 2279 Rocket 4.5 17:19:08 10° SSE 17:24:46 38° E 17:30:25 10° NNE
COSMOS 2406 3.2 17:19:29 10° SSW 17:25:15 84° ESE 17:31:01 10° NNE
Cosmos 1833 Rocket 2.9 17:20:58 10° SSW 17:26:34 74° WNW 17:32:14 10° NNE
COSMO-SKYMED 1 3.5 17:23:38 10° NE 17:27:23 28° E 17:31:07 10° SSE
Cosmos 1782 2.8 17:24:15 10° S 17:28:11 59° E 17:32:07 10° NNE
ATLAS 5 CENTAUR R/B 3.6 17:25:13 10° NW 17:31:13 21° N 17:33:09 16° NE
Meteor 2-21 4.4 17:25:22 10° N 17:31:25 64° E 17:37:23 10° SSE
CZ-2C R/B 3.8 17:31:55 10° SSE 17:32:50 11° SSE 17:33:45 10° SE
Cosmos 1633 Rocket 3.8 17:32:03 10° NNE 17:35:57 31° ENE 17:39:51 10° SE
CZ-2D R/B 3.2 17:35:30 10° SSE 17:39:17 63° ENE 17:43:04 10° N
Cosmos 1898 Rocket 3.9 17:34:52 10° NNW 17:40:05 67° WSW 17:45:13 10° S
Cosmos 1634 Rocket 4.0 17:35:17 10° S 17:41:36 82° E 17:47:57 10° N
COSMOS 2455 2.8 17:36:28 10° SSW 17:42:29 84° ESE 17:48:14 12° NNE
PAYLOAD B 4.2 17:38:08 10° SSE 17:43:43 73° ENE 17:49:19 10° N
CZ-4B R/B 3.2 17:41:03 10° SE 17:46:17 53° ENE 17:51:29 10° N
CZ-2C R/B 2.8 17:41:54 10° NNE 17:46:55 48° E 17:51:54 10° S
Cosmos 1151 Rocket 3.1 17:43:01 10° S 17:47:12 51° E 17:51:25 10° NNE
Cosmos 1500 3.0 17:43:49 10° N 17:47:34 81° E 17:51:17 10° S
Cosmos 2026 Rocket 4.0 17:43:05 10° N 17:49:14 86° W 17:55:17 10° S
Lacrosse 5 rocket 2.7 17:47:17 10° NNW 17:50:18 21° NNE 17:50:36 20° NNE
Okean O Rocket 2.0 17:46:13 10° SE 17:50:23 41° ENE 17:54:35 10° N
Meteor 2-14 Rocket 4.5 17:48:24 10° N 17:54:31 85° W 18:00:35 10° S
Cosmos 2208 Rocket 4.3 17:53:12 10° S 17:58:21 49° ESE 18:01:39 22° NE
GPS 2-04 Rocket1 4.5 17:55:18 10° WSW 17:58:47 27° S 18:01:28 14° SE
Cosmos 1666 Rocket 3.4 17:57:26 10° N 18:01:54 72° E 18:06:16 10° SSE
H-2A R/B 2.0 17:57:12 10° SSE 18:02:25 85° WSW 18:07:30 10° NNW
NOSS 2-2 (C) 4.4 17:57:16 10° NW 18:02:41 84° NE 18:10:20 10° SE
Meteor 1-11 Rocket 4.4 17:58:56 10° N 18:03:53 31° ENE 18:05:45 25° ESE
Cosmos 1328 Rocket 3.6 18:00:22 10° S 18:04:42 57° E 18:07:30 21° NNE
Cosmos 1470 Rocket 4.0 18:00:55 10° N 18:05:04 37° ENE 18:09:13 10° SE
USA 267 4.0 18:01:03 16° NE 18:05:53 43° NNW 18:11:57 10° W
Cosmos 1655 Rocket 4.3 18:01:10 10° N 18:07:16 44° ENE 18:13:17 10° SSE
USA 305 4.5 18:05:20 10° NW 18:08:31 20° N 18:08:46 20° NNE
Cosmos 2360 Rocket 4.1 18:05:44 10° N 18:07:09 13° NNE 18:07:09 13° NNE
Landsat 5 3.4 18:08:42 37° NE 18:09:59 55° E 18:13:52 10° S
Cosmos 2180 Rocket 4.4 18:07:05 10° S 18:13:24 70° E 18:19:39 10° NNE
Cosmos 841 Rocket 4.2 18:08:48 10° SW 18:13:49 52° WNW 18:18:52 10° N
SKYMED 2 3.5 18:12:00 15° NNE 18:15:36 88° WNW 18:19:56 10° SSW
Feng Yun 1-1 Rocket 4.5 18:10:01 10° SE 18:15:43 52° ENE 18:21:24 10° N
Meteor 2-8 Rocket 4.3 18:10:51 10° S 18:16:58 73° E 18:23:08 10° NNE
Cosmos 1666 2.6 18:13:18 10° N 18:17:02 82° W 18:20:44 10° S
ATLAS CENTAUR R/B 3.7 18:09:56 10° WSW 18:18:18 38° NW 18:20:44 22° NNE
Cosmos 1125 Rocket 4.1 18:18:14 10° N 18:22:14 36° NE 18:22:14 36° NE
SL-24 R/B - RUBIN 2 4.0 18:22:21 10° NW 18:26:45 59° WSW 18:30:58 10° SSE
Cosmos 2322 Rocket 3.3 18:24:25 10° N 18:27:49 27° NNE 18:27:49 27° NNE
SL-08 RB Rocket 3.6 18:28:56 10° SSE 18:33:34 81° ENE 18:38:13 10° N
Cosmos 1812 4.2 18:31:10 10° SW 18:34:43 36° WNW 18:37:47 13° NNW
Cosmos 1980 Rocket 2.9 18:30:00 10° NNW 18:35:30 53° WSW 18:40:56 10° S
USA 234 4.0 18:32:25 10° SSE 18:38:45 52° SW 18:45:07 10° WNW
ISS -2.5 18:35:42 10° WNW 18:37:59 40° WNW 18:37:59 40° WNW
deb Chang Zheng 4 4.5 18:35:30 10° S 18:39:40 49° W 18:43:52 10° NNW
CZ-4C R/B 3.1 18:39:00 10° NW 18:46:26 82° WSW 18:55:00 10° SSE
Cosmos 1515 Rocket 3.9 18:42:28 10° S 18:46:04 58° S 18:46:04 58° S
SL-16 R/B 2.6 18:41:46 10° NNW 18:46:11 46° NNE 18:46:11 46° NNE
Cosmos 2082 Rocket 3.5 18:43:26 10° SW 18:48:40 37° WNW 18:52:36 17° N
Cosmos 44 Rocket 3.6 18:49:18 10° NNW 18:53:10 54° NNW 18:53:10 54° NNW
COSMO-SKYMED 1 4.5 19:00:37 14° NNW 19:03:29 27° WNW 19:07:09 10° SW
ARGOS 4.4 18:59:14 10° SSW 19:04:19 41° W 19:09:25 10° NNW
Meteor 1-27 Rocket 4.1 19:02:38 10° S 19:06:42 51° S 19:06:42 51° S
DMSP B5D2-2 4.3 19:10:16 66° SW 19:10:16 66° SW 19:14:51 10° SSW
Cosmos 2298 Rocket 4.3 19:04:44 10° NNW 19:09:28 65° WNW 19:09:28 65° WNW
Cosmos 921 Rocket 4.3 19:06:33 10° SW 19:09:34 37° WSW 19:09:34 37° WSW
CZ-2C R/B 3.8 19:08:24 10° SW 19:09:35 16° SSW 19:09:35 16° SSW
Cosmos 2266 Rocket 4.5 19:10:03 10° NNW 19:16:19 61° W 19:22:36 10° S
GEOS 3 Rocket 4.3 19:19:06 48° NW 19:19:06 48° NW 19:22:49 10° NW
Cosmos 1818 4.1 19:14:49 10° NW 19:19:33 57° W 19:19:33 57° W
Okean O Rocket 4.2 19:23:40 10° SW 19:26:53 20° W 19:30:09 10° NW
Lacrosse 5 rocket 4.1 19:25:46 10° NW 19:26:12 13° NW 19:26:12 13° NW
BREEZE-M DEB (TANK) 4.2 19:21:06 10° SW 19:44:38 80° NW 19:44:57 79° N
